MJC YMEN-YMEN

Flight info

Callsign MJC
Flight time 0h 52m
Altitude 1500
Route YMEN WES YLIL YMEN
Aircraft H160/L-S/S

Departure

Time 2026-05-07 11:09
Airport Melbourne Essendon Airport (YMEN)

Arrival

Time 2026-05-07 12:01
Airport Melbourne Essendon Airport (YMEN)
Time Latitude Longitude Altitude Speed Heading
2026-05-07 10:56 -37.72474 144.89923 262 ft 0 kts 238°
2026-05-07 11:00 -37.72475 144.89921 262 ft 2 kts 227°
2026-05-07 11:00 -37.72492 144.89927 262 ft 2 kts 136°
2026-05-07 11:01 -37.72497 144.89934 263 ft 1 kts 139°
2026-05-07 11:01 -37.72505 144.89939 263 ft 2 kts 162°
2026-05-07 11:01 -37.72527 144.89956 263 ft 4 kts 135°
2026-05-07 11:01 -37.72544 144.89981 264 ft 4 kts 124°
2026-05-07 11:02 -37.72555 144.90004 264 ft 1 kts 151°
2026-05-07 11:06 -37.72559 144.90038 330 ft 5 kts 254°
2026-05-07 11:07 -37.72645 144.89929 501 ft 39 kts 232°
2026-05-07 11:07 -37.73006 144.89542 507 ft 81 kts 219°
2026-05-07 11:07 -37.73523 144.89208 637 ft 87 kts 204°
2026-05-07 11:07 -37.74151 144.89114 717 ft 96 kts 175°
2026-05-07 11:08 -37.74844 144.89392 683 ft 113 kts 164°
2026-05-07 11:08 -37.75609 144.89762 627 ft 117 kts 167°
2026-05-07 11:08 -37.76367 144.90021 699 ft 109 kts 173°
2026-05-07 11:08 -37.77091 144.90164 765 ft 103 kts 178°
2026-05-07 11:09 -37.77793 144.90226 892 ft 99 kts 180°
2026-05-07 11:09 -37.78478 144.90297 1002 ft 101 kts 174°
2026-05-07 11:09 -37.79194 144.90474 1033 ft 108 kts 175°
2026-05-07 11:09 -37.79942 144.90660 1028 ft 111 kts 175°
2026-05-07 11:10 -37.80712 144.90852 1024 ft 114 kts 175°
2026-05-07 11:10 -37.81495 144.91075 1037 ft 117 kts 170°
2026-05-07 11:10 -37.82274 144.91433 1027 ft 121 kts 162°
2026-05-07 11:10 -37.83030 144.91933 994 ft 124 kts 154°
2026-05-07 11:11 -37.83739 144.92563 1009 ft 124 kts 146°
2026-05-07 11:11 -37.84334 144.93323 1110 ft 122 kts 128°
2026-05-07 11:11 -37.84596 144.94358 1132 ft 131 kts 91°
2026-05-07 11:11 -37.84349 144.95471 1077 ft 134 kts 55°
2026-05-07 11:12 -37.83798 144.96461 895 ft 142 kts 43°
2026-05-07 11:12 -37.83145 144.97455 686 ft 153 kts 59°
2026-05-07 11:12 -37.82671 144.98638 688 ft 141 kts 64°
2026-05-07 11:12 -37.82245 144.99632 980 ft 117 kts 53°
2026-05-07 11:13 -37.81822 145.00411 1280 ft 99 kts 41°
2026-05-07 11:13 -37.81406 145.01012 1558 ft 86 kts 31°
2026-05-07 11:13 -37.80898 145.01545 1579 ft 105 kts 25°
2026-05-07 11:13 -37.80217 145.02064 1505 ft 124 kts 19°
2026-05-07 11:14 -37.79394 145.02565 1304 ft 138 kts 20°
2026-05-07 11:14 -37.78471 145.03031 1032 ft 144 kts 15°
2026-05-07 11:14 -37.77563 145.03420 1027 ft 132 kts 12°
2026-05-07 11:14 -37.76705 145.03714 1064 ft 123 kts
2026-05-07 11:15 -37.75894 145.03926 1032 ft 116 kts
2026-05-07 11:15 -37.75117 145.04064 1017 ft 110 kts 359°
2026-05-07 11:15 -37.74369 145.04136 1009 ft 105 kts 353°
2026-05-07 11:15 -37.73670 145.04483 1003 ft 114 kts 37°
2026-05-07 11:16 -37.73287 145.05361 1003 ft 118 kts 78°
2026-05-07 11:16 -37.73221 145.06401 999 ft 118 kts 85°
2026-05-07 11:16 -37.73148 145.07435 1002 ft 118 kts 84°
2026-05-07 11:16 -37.73062 145.08467 1002 ft 118 kts 83°
2026-05-07 11:17 -37.72962 145.09491 1001 ft 117 kts 81°
2026-05-07 11:17 -37.72848 145.10509 1001 ft 117 kts 81°
2026-05-07 11:17 -37.72718 145.11519 1006 ft 116 kts 79°
2026-05-07 11:17 -37.72588 145.12475 1011 ft 105 kts 79°
2026-05-07 11:18 -37.72472 145.13333 1007 ft 96 kts 77°
2026-05-07 11:18 -37.72361 145.14142 1012 ft 89 kts 80°
2026-05-07 11:18 -37.72265 145.14887 1012 ft 83 kts 81°
2026-05-07 11:18 -37.72181 145.15598 1009 ft 80 kts 79°
2026-05-07 11:19 -37.72102 145.16284 1009 ft 78 kts 79°
2026-05-07 11:19 -37.72027 145.16938 1012 ft 75 kts 80°
2026-05-07 11:19 -37.71962 145.17558 1013 ft 73 kts 82°
2026-05-07 11:19 -37.71907 145.18136 1011 ft 71 kts 82°
2026-05-07 11:20 -37.71855 145.18755 1013 ft 69 kts 84°
2026-05-07 11:20 -37.71812 145.19351 1011 ft 67 kts 84°
2026-05-07 11:20 -37.71777 145.19938 1008 ft 66 kts 86°
2026-05-07 11:20 -37.71748 145.20509 1011 ft 64 kts 87°
2026-05-07 11:21 -37.71725 145.21084 1007 ft 69 kts 88°
2026-05-07 11:21 -37.71689 145.21768 986 ft 96 kts 84°
2026-05-07 11:21 -37.71590 145.22677 1209 ft 105 kts 81°
2026-05-07 11:21 -37.71451 145.23579 1448 ft 106 kts 77°
2026-05-07 11:22 -37.71261 145.24503 1689 ft 111 kts 75°
2026-05-07 11:22 -37.71032 145.25439 1830 ft 113 kts 76°
2026-05-07 11:22 -37.70793 145.26416 1661 ft 119 kts 73°
2026-05-07 11:22 -37.70577 145.27390 1471 ft 110 kts 74°
2026-05-07 11:23 -37.70407 145.28301 1280 ft 105 kts 76°
2026-05-07 11:23 -37.70239 145.29204 1379 ft 106 kts 72°
2026-05-07 11:23 -37.70014 145.30104 1707 ft 109 kts 66°
2026-05-07 11:23 -37.69740 145.31005 1796 ft 111 kts 69°
2026-05-07 11:24 -37.69555 145.31945 1724 ft 105 kts 80°
2026-05-07 11:24 -37.69466 145.32813 1736 ft 94 kts 84°
2026-05-07 11:24 -37.69445 145.33597 1757 ft 85 kts 90°
2026-05-07 11:24 -37.69481 145.34307 1779 ft 77 kts 105°
2026-05-07 11:25 -37.69577 145.34998 1682 ft 88 kts 110°
2026-05-07 11:25 -37.69768 145.35813 1415 ft 105 kts 111°
2026-05-07 11:25 -37.70056 145.36714 1156 ft 113 kts 116°
2026-05-07 11:25 -37.70378 145.37603 1019 ft 110 kts 106°
2026-05-07 11:26 -37.70517 145.38496 954 ft 99 kts 94°
2026-05-07 11:26 -37.70520 145.39313 905 ft 89 kts 75°
2026-05-07 11:26 -37.70452 145.40063 856 ft 83 kts 84°
2026-05-07 11:26 -37.70452 145.40776 818 ft 79 kts 91°
2026-05-07 11:27 -37.70513 145.41414 880 ft 67 kts 97°
2026-05-07 11:27 -37.70600 145.41945 1093 ft 56 kts 98°
2026-05-07 11:27 -37.70690 145.42386 1271 ft 47 kts 105°
2026-05-07 11:27 -37.70784 145.42749 1423 ft 40 kts 94°
2026-05-07 11:28 -37.70883 145.43044 1520 ft 33 kts 89°
2026-05-07 11:28 -37.70985 145.43309 1609 ft 40 kts 84°
2026-05-07 11:28 -37.70970 145.43788 1931 ft 73 kts 77°
2026-05-07 11:28 -37.70728 145.44503 2175 ft 104 kts 62°
2026-05-07 11:29 -37.70293 145.45475 1952 ft 150 kts 60°
2026-05-07 11:29 -37.69670 145.46737 1284 ft 186 kts 60°
2026-05-07 11:29 -37.69025 145.48096 1066 ft 165 kts 57°
2026-05-07 11:29 -37.68463 145.49185 1099 ft 131 kts 54°
2026-05-07 11:30 -37.67910 145.49860 1182 ft 93 kts
2026-05-07 11:30 -37.67526 145.49639 1225 ft 48 kts 254°
2026-05-07 11:30 -37.67681 145.49236 1060 ft 57 kts 226°
2026-05-07 11:30 -37.67975 145.48925 960 ft 54 kts 220°
2026-05-07 11:31 -37.68245 145.48668 798 ft 49 kts 241°
2026-05-07 11:31 -37.68438 145.48295 705 ft 49 kts 253°
2026-05-07 11:31 -37.68496 145.47950 569 ft 29 kts 265°
2026-05-07 11:31 -37.68500 145.47839 422 ft 10 kts 261°
2026-05-07 11:32 -37.68501 145.47810 404 ft 0 kts 273°
2026-05-07 11:41 -37.68500 145.47810 405 ft 1 kts 271°
2026-05-07 11:42 -37.68499 145.47809 404 ft 0 kts 279°
2026-05-07 11:42 -37.68499 145.47810 405 ft 1 kts 268°
2026-05-07 11:42 -37.68503 145.47823 428 ft 2 kts 270°
2026-05-07 11:42 -37.68511 145.47821 466 ft 1 kts 274°
2026-05-07 11:43 -37.68521 145.47826 558 ft 10 kts 278°
2026-05-07 11:43 -37.68550 145.47577 695 ft 46 kts 277°
2026-05-07 11:43 -37.68521 145.46999 842 ft 86 kts 278°
2026-05-07 11:43 -37.68474 145.46139 859 ft 105 kts 278°
2026-05-07 11:44 -37.68444 145.45207 1007 ft 108 kts 270°
2026-05-07 11:44 -37.68508 145.44261 1173 ft 109 kts 262°
2026-05-07 11:44 -37.68662 145.43316 1297 ft 111 kts 258°
2026-05-07 11:44 -37.68888 145.42380 1457 ft 113 kts 252°
2026-05-07 11:45 -37.69190 145.41432 1472 ft 120 kts 248°
2026-05-07 11:45 -37.69567 145.40464 1378 ft 126 kts 245°
2026-05-07 11:45 -37.70014 145.39482 1286 ft 132 kts 242°
2026-05-07 11:45 -37.70525 145.38495 1134 ft 136 kts 238°
2026-05-07 11:46 -37.71086 145.37507 922 ft 140 kts 238°
2026-05-07 11:46 -37.71684 145.36536 730 ft 140 kts 234°
2026-05-07 11:46 -37.72306 145.35610 639 ft 134 kts 233°
2026-05-07 11:46 -37.72905 145.34803 739 ft 119 kts 229°
2026-05-07 11:47 -37.73477 145.34123 829 ft 107 kts 224°
2026-05-07 11:47 -37.73962 145.33467 866 ft 101 kts 232°
2026-05-07 11:47 -37.74428 145.32805 878 ft 99 kts 230°
2026-05-07 11:47 -37.74883 145.32189 988 ft 93 kts 230°
2026-05-07 11:48 -37.75324 145.31622 1091 ft 88 kts 229°
2026-05-07 11:48 -37.75757 145.31098 1224 ft 84 kts 227°
2026-05-07 11:48 -37.76183 145.30613 1357 ft 80 kts 227°
2026-05-07 11:48 -37.76609 145.30160 1479 ft 81 kts 226°
2026-05-07 11:49 -37.77048 145.29713 1551 ft 82 kts 226°
2026-05-07 11:49 -37.77501 145.29273 1610 ft 83 kts 225°
2026-05-07 11:49 -37.77967 145.28840 1661 ft 84 kts 225°
2026-05-07 11:49 -37.78447 145.28412 1699 ft 85 kts 224°
2026-05-07 11:50 -37.78938 145.27991 1721 ft 86 kts 223°
2026-05-07 11:50 -37.79381 145.27447 1668 ft 93 kts 233°
2026-05-07 11:50 -37.79863 145.26860 1557 ft 100 kts 229°
2026-05-07 11:50 -37.80377 145.26217 1430 ft 109 kts 233°
2026-05-07 11:51 -37.80857 145.25444 1273 ft 114 kts 238°
2026-05-07 11:51 -37.81269 145.24571 1144 ft 117 kts 245°
2026-05-07 11:51 -37.81599 145.23618 1032 ft 120 kts 252°
2026-05-07 11:51 -37.81841 145.22595 943 ft 123 kts 258°
2026-05-07 11:52 -37.82005 145.21541 880 ft 119 kts 261°
2026-05-07 11:52 -37.82093 145.20876 930 ft 113 kts 262°
2026-05-07 11:52 -37.82202 145.19930 1071 ft 104 kts 261°
2026-05-07 11:52 -37.82287 145.19050 1158 ft 97 kts 263°
2026-05-07 11:53 -37.82384 145.18232 1257 ft 92 kts 253°
2026-05-07 11:53 -37.82679 145.17500 1248 ft 96 kts 243°
2026-05-07 11:53 -37.83013 145.16738 1190 ft 102 kts 245°
2026-05-07 11:53 -37.83365 145.15932 1151 ft 107 kts 244°
2026-05-07 11:54 -37.83741 145.15104 1111 ft 110 kts 242°
2026-05-07 11:54 -37.84138 145.14261 1030 ft 113 kts 243°
2026-05-07 11:54 -37.84549 145.13422 945 ft 112 kts 242°
2026-05-07 11:54 -37.84652 145.13218 914 ft 112 kts 240°
2026-05-07 11:55 -37.85049 145.12445 864 ft 111 kts 241°
2026-05-07 11:55 -37.85477 145.11643 858 ft 109 kts 239°
2026-05-07 11:55 -37.85913 145.10860 859 ft 107 kts 238°
2026-05-07 11:55 -37.86341 145.10127 945 ft 101 kts 239°
2026-05-07 11:56 -37.86762 145.09447 1053 ft 95 kts 237°
2026-05-07 11:56 -37.87177 145.08817 1140 ft 91 kts 234°
2026-05-07 11:56 -37.87588 145.08227 1248 ft 88 kts 233°
2026-05-07 11:56 -37.87972 145.07632 1288 ft 89 kts 241°
2026-05-07 11:57 -37.88282 145.06942 1260 ft 92 kts 249°
2026-05-07 11:57 -37.88569 145.06198 1235 ft 97 kts 245°
2026-05-07 11:57 -37.88888 145.05431 1203 ft 100 kts 247°
2026-05-07 11:57 -37.89173 145.04618 1188 ft 103 kts 250°
2026-05-07 11:58 -37.89439 145.03747 1072 ft 110 kts 253°
2026-05-07 11:58 -37.89715 145.02816 937 ft 116 kts 253°
2026-05-07 11:58 -37.89997 145.01850 812 ft 117 kts 252°
2026-05-07 11:58 -37.90273 145.00896 838 ft 110 kts 252°
2026-05-07 11:59 -37.90507 145.00117 949 ft 80 kts 252°
2026-05-07 11:59 -37.90619 144.99513 1023 ft 58 kts 263°
2026-05-07 11:59 -37.90476 144.99119 1080 ft 52 kts 317°
2026-05-07 11:59 -37.90118 144.99071 1032 ft 57 kts 338°
2026-05-07 12:00 -37.89758 144.98978 939 ft 49 kts 327°
2026-05-07 12:00 -37.89480 144.98732 885 ft 51 kts 335°
2026-05-07 12:00 -37.89141 144.98518 814 ft 59 kts 333°
2026-05-07 12:00 -37.88793 144.98219 704 ft 56 kts 327°
2026-05-07 12:01 -37.88577 144.97912 680 ft 36 kts 341°
2026-05-07 12:01 -37.88378 144.97763 580 ft 42 kts
2026-05-07 12:01 -37.88068 144.97675 533 ft 47 kts
2026-05-07 12:01 -37.87743 144.97651 556 ft 47 kts 354°
2026-05-07 12:02 -37.87401 144.97589 523 ft 55 kts 341°
2026-05-07 12:02 -37.87001 144.97409 460 ft 63 kts 340°
2026-05-07 12:02 -37.86578 144.97416 489 ft 59 kts
2026-05-07 12:02 -37.86175 144.97471 532 ft 59 kts 11°
2026-05-07 12:03 -37.85771 144.97508 611 ft 58 kts
2026-05-07 12:03 -37.85357 144.97579 698 ft 62 kts
2026-05-07 12:03 -37.84923 144.97657 780 ft 64 kts
2026-05-07 12:03 -37.84463 144.97738 831 ft 74 kts
2026-05-07 12:04 -37.83881 144.97788 759 ft 82 kts
2026-05-07 12:04 -37.83349 144.97828 730 ft 70 kts
2026-05-07 12:04 -37.82915 144.97778 691 ft 56 kts 348°
2026-05-07 12:04 -37.82591 144.97668 651 ft 41 kts 333°
2026-05-07 12:05 -37.82362 144.97593 491 ft 29 kts 322°
2026-05-07 12:05 -37.82142 144.97461 336 ft 47 kts 318°
2026-05-07 12:05 -37.81936 144.97020 301 ft 67 kts 282°
2026-05-07 12:05 -37.81966 144.96417 251 ft 70 kts 254°
2026-05-07 12:06 -37.82103 144.95998 155 ft 35 kts 244°
2026-05-07 12:06 -37.82189 144.95803 112 ft 20 kts 246°
2026-05-07 12:06 -37.82229 144.95732 72 ft 6 kts 250°
2026-05-07 12:06 -37.82260 144.95664 59 ft 5 kts 245°
2026-05-07 12:07 -37.82282 144.95617 59 ft 8 kts 244°
2026-05-07 12:07 -37.82292 144.95598 26 ft 0 kts 243°
2026-05-07 12:11 -37.82292 144.95599 25 ft 0 kts 243°
2026-05-07 12:12 -37.82300 144.95593 55 ft 2 kts 243°
2026-05-07 12:12 -37.82299 144.95587 28 ft 0 kts 242°
2026-05-07 12:13 -37.82295 144.95587 63 ft 0 kts 246°
2026-05-07 12:13 -37.82296 144.95587 53 ft 0 kts 246°
2026-05-07 12:13 -37.82297 144.95587 51 ft 0 kts 246°
2026-05-07 12:14 -37.82312 144.95539 119 ft 23 kts 246°
2026-05-07 12:14 -37.82418 144.95194 362 ft 65 kts 262°
2026-05-07 12:14 -37.82710 144.94554 615 ft 94 kts 246°
2026-05-07 12:14 -37.83046 144.93878 883 ft 87 kts 246°
2026-05-07 12:15 -37.83310 144.93222 1013 ft 82 kts 252°
2026-05-07 12:15 -37.83618 144.92617 1060 ft 82 kts 243°
2026-05-07 12:15 -37.83926 144.92040 1146 ft 76 kts 245°
2026-05-07 12:15 -37.84152 144.91454 1201 ft 72 kts 250°
2026-05-07 12:16 -37.84125 144.90849 1188 ft 75 kts 292°
2026-05-07 12:16 -37.83653 144.90496 1190 ft 91 kts 338°
2026-05-07 12:16 -37.82994 144.90703 1216 ft 105 kts 14°
2026-05-07 12:16 -37.82319 144.91026 1234 ft 103 kts
2026-05-07 12:17 -37.81613 144.91216 1208 ft 105 kts
2026-05-07 12:17 -37.80882 144.91366 1179 ft 108 kts
2026-05-07 12:17 -37.80124 144.91479 1153 ft 112 kts
2026-05-07 12:17 -37.79338 144.91637 1127 ft 116 kts 11°
2026-05-07 12:18 -37.78555 144.91779 1138 ft 112 kts
2026-05-07 12:18 -37.77793 144.91818 1172 ft 107 kts 358°
2026-05-07 12:18 -37.77068 144.91765 1215 ft 103 kts 354°
2026-05-07 12:18 -37.76364 144.91675 1234 ft 101 kts 353°
2026-05-07 12:19 -37.75680 144.91517 1223 ft 100 kts 352°
2026-05-07 12:19 -37.75013 144.91304 1082 ft 98 kts 355°
2026-05-07 12:19 -37.74478 144.91123 966 ft 56 kts 353°
2026-05-07 12:19 -37.74148 144.91031 659 ft 47 kts 348°
2026-05-07 12:20 -37.73817 144.90958 634 ft 54 kts 345°
2026-05-07 12:20 -37.73386 144.90790 593 ft 68 kts 347°
2026-05-07 12:20 -37.72909 144.90573 481 ft 71 kts 346°
2026-05-07 12:20 -37.72603 144.90253 355 ft 32 kts 291°
2026-05-07 12:21 -37.72573 144.90116 309 ft 14 kts 270°
2026-05-07 12:21 -37.72563 144.90060 280 ft 2 kts 274°
2026-05-07 12:21 -37.72563 144.90014 272 ft 5 kts 272°
2026-05-07 12:21 -37.72561 144.90029 268 ft 0 kts 279°
2026-05-07 12:27 -37.72561 144.90028 266 ft 2 kts 274°
2026-05-07 12:27 -37.72560 144.90017 268 ft 4 kts 266°
2026-05-07 12:27 -37.72564 144.90012 267 ft 1 kts 257°
2026-05-07 12:28 -37.72572 144.89983 314 ft 18 kts 248°
2026-05-07 12:28 -37.72675 144.89692 549 ft 56 kts 246°
2026-05-07 12:28 -37.72922 144.89261 557 ft 66 kts 197°
2026-05-07 12:28 -37.73337 144.89718 372 ft 106 kts 115°
2026-05-07 12:29 -37.73401 144.90192 582 ft 43 kts
2026-05-07 12:29 -37.73128 144.90461 489 ft 52 kts 12°
2026-05-07 12:29 -37.72885 144.90423 476 ft 29 kts 324°
2026-05-07 12:29 -37.72587 144.90269 292 ft 69 kts 330°
2026-05-07 12:30 -37.72381 144.90154 271 ft 5 kts 267°
2026-05-07 12:30 -37.72438 144.90118 278 ft 13 kts 214°
2026-05-07 12:30 -37.72512 144.90111 277 ft 11 kts 215°
2026-05-07 12:30 -37.72557 144.90069 275 ft 6 kts 266°
2026-05-07 12:31 -37.72562 144.90032 269 ft 7 kts 283°
2026-05-07 12:31 -37.72560 144.90023 264 ft 0 kts 284°
2026-05-07 12:31 -37.72560 144.90021 265 ft 0 kts 267°
2026-05-07 12:31 -37.72559 144.90023 271 ft 2 kts 274°
2026-05-07 12:32 -37.72560 144.90024 269 ft 1 kts 274°
2026-05-07 12:32 -37.72559 144.90032 297 ft 1 kts 274°
2026-05-07 12:32 -37.72559 144.90013 264 ft 1 kts 282°
2026-05-07 12:32 -37.72554 144.89985 264 ft 5 kts 307°
2026-05-07 12:33 -37.72492 144.89975 263 ft 4 kts 353°
2026-05-07 12:33 -37.72480 144.89959 262 ft 1 kts 276°
2026-05-07 12:33 -37.72480 144.89956 262 ft 1 kts 276°
2026-05-07 12:34 -37.72479 144.89937 262 ft 2 kts 280°
2026-05-07 12:34 -37.72469 144.89928 262 ft 0 kts 349°